Worldloppet Ski Federation - Fis Marathon Cup

Search and browse results

The current database enables the following:


ico general ranking search
ico women ranking search
ico alphabetical search

Engadin Skimarathon

09.03.2003 42 km FT

Men's ranking

3502.FUST MarkusSUI2:25.05,0
3506.BUCHER HubertSUI2:25.06,7
3507.LÖTSCHER AdrianSUI2:25.06,8
3508.GOOD BeatSUI2:25.07,2
3511.VOIGT GunterGER2:25.09,6
3511.SCHRANZ WilhelmSUI2:25.09,6
3514.MÜLLER UrsSUI2:25.10,2
3515.VETTER RalphSUI2:25.11,4
3516.KIVISÄKK UlfSWE2:25.12,8
3517.FERRARI FabioSUI2:25.14,0
3518.BECK AndreasGER2:25.14,2
3524.GMÜR EtienneLIE2:25.16,5
3525.UEHLINGER AlbertSUI2:25.17,0
3527.Tobler WernerSUI2:25.18,2
3528.KAUFMANN HeinzSUI2:25.18,7
3529.FLÜHLER RobertSUI2:25.18,9
3530.SCHUBIGER StefanSUI2:25.19,5
3531.ANDERMATT AndréSUI2:25.20,0
3532.NIEDERMAIER SeppGER2:25.20,6
3533.HÄUPTLI AndreasSUI2:25.21,0
3534.EBRANATI AugustoITA2:25.21,9
3535.STÖCKLI AndreasSUI2:25.22,3
3536.NEBE SvenGER2:25.22,4
3537.SCHMED NorbertSUI2:25.22,9
3538.Jauch ErhardSUI2:25.23,6
3539.STACHER BrunoSUI2:25.24,0
3540.KASSER HanspeterSUI2:25.25,4
3543.SEMENOV AnatolyRUS2:25.30,1
3545.LECHLEITNER AlfredGER2:25.31,1
3546.Schmid StefanSUI2:25.31,9
3547.GLISENTI PaoloSUI2:25.33,7
3548.SIGNER BernhardSUI2:25.35,3
3552.ROHRBACH ArthurSUI2:25.37,9
3554.NIEDERBERGER RainerSUI2:25.39,5
3556.VON KÄNEL HansulrichSUI2:25.40,1
3558.FÄSSLER AndreasSUI2:25.43,2
3559.RIMPF DieterSUI2:25.43,3
3560.TANNER AntonSUI2:25.44,2
3561.NEF HansjörgSUI2:25.45,1
3561.MORF MartinSUI2:25.45,1
3566.CAPEDER PatrickSUI2:25.47,5
3569.WIEDERKEHR UrsSUI2:25.49,9
3571.VOGEL MartinSUI2:25.50,9
3574.Rügg BrunoSUI2:25.51,9
3577.BOYSEN ThiesGER2:25.53,1
3578.SCHEIDEGGER KarlSUI2:25.53,3
3582.MEILE OthmarSUI2:25.54,0
3584.ULBRICHT HorstGER2:25.55,6
3585.PLETSCHER RichardSUI2:25.56,0
3586.FORBERGER ThomasGER2:25.56,5
3587.KÄSLIN HansSUI2:25.56,7
3591.OBERHOLZER RolandSUI2:25.59,0
3592.RIVOLTA StefanoITA2:25.59,3
3594.MORANDI AngeloSUI2:26.02,7
3595.SCHWARZENBACH DiegoSUI2:26.03,9
3596.VONAU Axel-WernerGER2:26.04,5
3599.Zurbrügg RolfSUI2:26.08,0
3600.OBERHOLZER WernerSUI2:26.09,5


next rankings:

3501 - 3600






  
JAO Collectionsjulbo-eyewearFisherSki Skettmarathon skierFis skiEnervitRossignolAmmergauer Alpen
WORLDLOPPET
SKI FEDERATION

Loc. Stalimen 4, Stadio Del Salto
I-38037 Predazzo (Tn), Italy
Phone: +39.0462.501110
Fax: +39.0462.501120
Email: info@worldloppet.com

All Rights Reserved © 2015 Worldloppet Ski Federation

Impressum | Powered by   Juniper-XS - Cavalese (Tn)